Date String (YYYY-MM-DD hh:mm:ss) UTC,Instrument flags,absolute air pressure of the measurement (hPa),sample flow rate (lpm),inlet stack bypass flow (lpm),air temperature of the measurement (°C),ambient temperature measured by the external sensor (°C),aerosol sample conditioner tube jacket temperature (°C),OPC LED temperature (°C),internal box temperature (°C),relative humidity of the measurement (%),span deviation,mass concentration of particles derived from Lorenz-Mie calculation of OPC scattering (μg/m³),mass concentration of particles derived from Lorenz-Mie calculation of OPC scattering (μg/m³),mass concentration of particles derived from Lorenz-Mie calculation of OPC scattering (μg/m³)
DateTimeUTC,F1_M11,P_M11,Q1_M11,Q2_M11,T1_M11,T2_M11,T3_M11,T4_M11,T5_M11,U1_M11,ZSPAN_M11,X0_M11,X2_M11,X1_M11
2023-10-03 11:00:00,SystemResetWarning,0826.8,5.00,000.00,029.3,027.9,000.0,037.7,030.9,25.8,0000.0,0008.32,0004.49,0003.75
2023-10-03 11:01:00,SystemResetWarning,0826.7,5.01,000.00,029.3,027.9,000.0,037.8,030.9,25.8,0000.0,0008.41,0004.51,0003.75
2023-10-03 11:02:00,SystemResetWarning,0826.8,5.00,000.00,029.3,027.9,000.0,037.8,031.0,25.8,0000.0,0008.19,0004.47,0003.73
2023-10-03 11:03:00,SystemResetWarning,0826.8,5.00,000.00,029.3,027.9,000.0,037.8,030.9,25.8,0000.0,0008.07,0004.45,0003.73
2023-10-03 11:04:00,SystemResetWarning,0826.8,4.99,000.00,029.3,027.9,000.0,037.8,031.0,25.8,0000.0,0008.57,0004.44,0003.73
2023-10-03 11:05:00,SystemResetWarning,0826.8,4.99,000.00,029.3,027.9,000.0,037.8,030.9,25.8,0000.0,0008.78,0004.44,0003.72
2023-10-03 11:06:00,SystemResetWarning,0826.7,5.00,000.00,029.3,027.9,000.0,037.8,031.0,25.8,0000.0,0009.30,0004.42,0003.72
2023-10-03 11:07:00,SystemResetWarning,0826.8,5.00,000.00,029.3,027.9,000.0,037.8,031.0,25.7,0000.0,0009.14,0004.35,0003.69
2023-10-03 11:08:00,SystemResetWarning,0826.8,5.00,000.00,029.3,027.9,000.0,037.8,031.0,25.4,0000.0,0009.07,0004.32,0003.65
2023-10-03 11:09:00,SystemResetWarning,0826.8,5.00,000.00,029.3,027.9,000.0,037.8,030.9,25.4,0000.0,0009.05,0004.31,0003.62
2023-10-03 11:10:00,SystemResetWarning,0826.8,5.01,000.00,029.3,027.9,000.0,037.8,031.0,25.3,0000.0,0009.00,0004.27,0003.60
2023-10-03 11:11:00,SystemResetWarning,0826.8,5.00,000.00,029.3,027.9,000.0,037.8,031.0,25.4,0000.0,0009.06,0004.24,0003.57
2023-10-03 11:12:00,SystemResetWarning,0826.7,4.99,000.00,029.3,027.9,000.0,037.8,030.9,25.5,0000.0,0008.92,0004.19,0003.53
2023-10-03 11:13:00,SystemResetWarning,0826.6,4.99,000.00,029.3,028.0,000.0,037.8,031.0,25.6,0000.0,0009.00,0004.19,0003.50
2023-10-03 11:14:00,SystemResetWarning,0826.7,5.00,000.00,029.3,028.0,000.0,037.8,031.0,25.6,0000.0,0008.89,0004.14,0003.47
2023-10-03 11:15:00,SystemResetWarning,0826.6,5.00,000.00,029.3,028.0,000.0,037.8,031.0,25.6,0000.0,0008.18,0004.07,0003.43
2023-10-03 11:16:00,SystemResetWarning,0826.6,5.00,000.00,029.3,028.0,000.0,037.8,031.0,25.9,0000.0,0007.96,0004.04,0003.40
2023-10-03 11:17:00,SystemResetWarning,0826.6,5.01,000.00,029.3,028.0,000.0,037.8,031.0,25.9,0000.0,0007.52,0004.01,0003.38
2023-10-03 11:18:00,SystemResetWarning,0826.6,5.00,000.00,029.3,028.0,000.0,037.8,031.0,25.8,0000.0,0007.51,0003.98,0003.36
2023-10-03 11:19:00,SystemResetWarning,0826.6,4.99,000.00,029.3,028.0,000.0,037.8,031.0,25.9,0000.0,0007.47,0003.96,0003.36
2023-10-03 11:20:00,SystemResetWarning,0826.6,5.00,000.00,029.3,028.0,000.0,037.8,031.0,25.8,0000.0,0007.47,0003.95,0003.35
2023-10-03 11:21:00,SystemResetWarning,0826.6,4.99,000.00,029.3,028.0,000.0,037.8,031.0,26.0,0000.0,0007.43,0003.96,0003.35
2023-10-03 11:22:00,SystemResetWarning,0826.6,5.00,000.00,029.3,028.0,000.0,037.8,031.0,26.3,0000.0,0007.49,0003.95,0003.34
2023-10-03 11:23:00,SystemResetWarning,0826.6,5.00,000.00,029.4,028.0,000.0,037.8,031.0,26.2,0000.0,0007.70,0003.96,0003.36
2023-10-03 11:24:00,SystemResetWarning,0826.6,5.00,000.00,029.4,028.0,000.0,037.8,031.1,26.1,0000.0,0007.61,0003.92,0003.37
2023-10-03 11:25:00,SystemResetWarning,0826.6,5.00,000.00,029.4,028.1,000.0,037.8,031.1,26.1,0000.0,0007.68,0003.92,0003.37
2023-10-03 11:26:00,SystemResetWarning,0826.6,4.99,000.00,029.4,028.1,000.0,037.8,031.1,26.1,0000.0,0007.80,0003.95,0003.37
2023-10-03 11:27:00,SystemResetWarning,0826.6,5.01,000.00,029.4,028.1,000.0,037.8,031.1,26.1,0000.0,0007.74,0003.93,0003.37
2023-10-03 11:28:00,SystemResetWarning,0826.6,5.01,000.00,029.4,028.1,000.0,037.9,031.1,26.1,0000.0,0007.52,0003.90,0003.37
2023-10-03 11:29:00,SystemResetWarning,0826.6,5.01,000.00,029.4,028.1,000.0,037.9,031.1,26.1,0000.0,0007.46,0003.93,0003.38
2023-10-03 11:30:00,SystemResetWarning,0826.6,5.00,000.00,029.4,028.1,000.0,037.9,031.1,26.0,0000.0,0007.56,0003.99,0003.41
2023-10-03 11:31:00,SystemResetWarning,0826.6,5.00,000.00,029.4,028.1,000.0,037.9,031.1,25.9,0000.0,0007.51,0004.00,0003.43
2023-10-03 11:32:00,SystemResetWarning,0826.6,5.00,000.00,029.4,028.1,000.0,037.9,031.1,25.9,0000.0,0007.57,0004.02,0003.44
2023-10-03 11:33:00,SystemResetWarning,0826.6,4.99,000.00,029.4,028.1,000.0,037.9,031.1,26.0,0000.0,0007.40,0004.03,0003.46
2023-10-03 11:34:00,SystemResetWarning,0826.6,4.99,000.00,029.4,028.1,000.0,037.9,031.1,26.0,0000.0,0007.09,0004.05,0003.48
2023-10-03 11:35:00,SystemResetWarning,0826.5,5.00,000.00,029.4,028.1,000.0,037.9,031.2,26.1,0000.0,0007.26,0004.09,0003.48
2023-10-03 11:36:00,SystemResetWarning,0826.6,5.00,000.00,029.5,028.1,000.0,037.9,031.1,26.1,0000.0,0007.20,0004.10,0003.50
2023-10-03 11:37:00,SystemResetWarning,0826.6,5.00,000.00,029.5,028.1,000.0,037.9,031.2,26.1,0000.0,0006.92,0004.08,0003.50
2023-10-03 11:38:00,SystemResetWarning,0826.6,4.99,000.00,029.5,028.1,000.0,037.9,031.2,26.1,0000.0,0007.05,0004.10,0003.50
2023-10-03 11:39:00,SystemResetWarning,0826.6,4.99,000.00,029.5,028.1,000.0,037.9,031.2,26.1,0000.0,0007.10,0004.12,0003.51
2023-10-03 11:40:00,SystemResetWarning,0826.6,5.00,000.00,029.5,028.1,000.0,037.9,031.2,26.1,0000.0,0007.20,0004.12,0003.49
2023-10-03 11:41:00,SystemResetWarning,0826.6,5.00,000.00,029.5,028.2,000.0,037.9,031.2,26.0,0000.0,0007.12,0004.08,0003.47
2023-10-03 11:42:00,SystemResetWarning,0826.6,5.00,000.00,029.5,028.1,000.0,037.9,031.2,26.1,0000.0,0007.15,0004.05,0003.44
2023-10-03 11:43:00,SystemResetWarning,0826.6,5.00,000.00,029.5,028.2,000.0,037.9,031.2,26.1,0000.0,0006.90,0003.99,0003.41
2023-10-03 11:44:00,SystemResetWarning,0826.6,5.01,000.00,029.5,028.2,000.0,038.0,031.2,26.0,0000.0,0006.98,0003.97,0003.38
2023-10-03 11:45:00,SystemResetWarning,0826.6,5.01,000.00,029.5,028.2,000.0,038.0,031.2,26.1,0000.0,0006.93,0003.93,0003.35
2023-10-03 11:46:00,SystemResetWarning,0826.6,4.99,000.00,029.5,028.2,000.0,038.0,031.2,26.2,0000.0,0006.66,0003.86,0003.33
2023-10-03 11:47:00,SystemResetWarning,0826.6,4.99,000.00,029.5,028.2,000.0,038.0,031.2,26.2,0000.0,0006.66,0003.84,0003.29
2023-10-03 11:48:00,SystemResetWarning,0826.6,5.01,000.00,029.5,028.2,000.0,038.0,031.2,26.1,0000.0,0006.59,0003.80,0003.26
2023-10-03 11:49:00,SystemResetWarning,0826.6,5.01,000.00,029.5,028.2,000.0,038.0,031.2,26.1,0000.0,0006.40,0003.75,0003.24
2023-10-03 11:50:00,SystemResetWarning,0826.6,5.01,000.00,029.5,028.2,000.0,038.0,031.2,26.1,0000.0,0006.23,0003.70,0003.21
2023-10-03 11:51:00,SystemResetWarning,0826.6,4.98,000.00,029.5,028.2,000.0,038.0,031.2,26.1,0000.0,0006.08,0003.67,0003.20
2023-10-03 11:52:00,SystemResetWarning,0826.6,4.99,000.00,029.5,028.2,000.0,038.0,031.2,26.0,0000.0,0005.97,0003.64,0003.18
2023-10-03 11:53:00,SystemResetWarning,0826.6,5.01,000.00,029.5,028.2,000.0,038.0,031.2,26.0,0000.0,0006.25,0003.60,0003.16
2023-10-03 11:54:00,SystemResetWarning,0826.6,5.01,000.00,029.5,028.2,000.0,038.0,031.2,25.9,0000.0,0006.26,0003.59,0003.14
2023-10-03 11:55:00,SystemResetWarning,0826.6,4.99,000.00,029.5,028.2,000.0,038.0,031.2,26.0,0000.0,0006.15,0003.59,0003.13
2023-10-03 11:56:00,SystemResetWarning,0826.5,4.99,000.00,029.5,028.2,000.0,038.0,031.2,25.9,0000.0,0006.21,0003.60,0003.14
2023-10-03 11:57:00,SystemResetWarning,0826.5,4.99,000.00,029.5,028.2,000.0,038.0,031.2,25.9,0000.0,0006.39,0003.61,0003.14
2023-10-03 11:58:00,SystemResetWarning,0826.5,5.01,000.00,029.5,028.2,000.0,038.0,031.2,25.9,0000.0,0006.55,0003.59,0003.15
2023-10-03 11:59:00,SystemResetWarning,0826.6,5.01,000.00,029.6,028.2,000.0,038.0,031.2,25.8,0000.0,0007.00,0003.61,0003.16
